Location: Newark
(23.3970°S, 47.6010°W)
Time: 11:22:19
(UTC+00:00)

Tiros 1 despin weight - Pass Details

Date: 19 February 2020
Orbit: 593 x 642 km, 48.2° (Epoch: 06 April)

Event Time Altitude Azimuth Distance (km) Brightness Sun altitude
Rises 16:35:48 0° 273° (W) 2,919 ? 69.1°
Reaches altitude 10° 16:39:00 10° 250° (WSW) 2,026 ? 68.5°
Maximum altitude 16:41:46 15° 213° (SSW) 1,701 ? 67.9°
Drops below altitude 10° 16:44:35 10° 177° (S) 2,046 ? 67.4°
Sets 16:47:50 0° 154° (SSE) 2,964 ? 66.7°
